Tracking 34717 objects as of 14-Jul-2026
HD Live streaming from Space Station
objects crossing your sky now

CZ-4 DEB

Track CZ-4 DEB now!
10-day predictions


NORAD ID: 20894
Int'l Code: 1990-081BE
Perigee: 770.3 km
Apogee: 794.4 km
Inclination: 98.6 °
Period: 100.4 minutes
Semi major axis: 7153 km
RCS: 0.0352 m2 (small)
Launch date: September 3, 1990
Source: People's Republic of China (PRC)
Launch site: Taiyaun Space Center, China (TSC)

Note: This is SATELLITE DEBRIS
Your satellite tracking list
Your tracking list is empty




NASA's NSSDC Master Catalog

Two Line Element Set (TLE):
1 20894U 90081BE  26194.80951683  .00000728  00000-0  27084-3 0  9994
2 20894  98.5515 193.5677 0016819 222.9467 260.3449 14.34953347854180
Source of the keplerian elements: AFSPC